Showing default

OPS 0100 (TRANSIT 15), 2754

Orbit data source: Space-Track

OPS 0100 (TRANSIT 15), 2754 is a payload satellite owned by USN NAVAIR (US) in LEO that was launched on Fri, 14 Apr 1967 UTC via an SCOUT A launch vehicle from the Air Force Western Test Range (AFWTR). Payload-class satellites include a variety of spacecraft equipped with specific instruments for various scientific and technological missions. These include communications satellites like Starlink; space stations such as the ISS; scientific satellites like the Hubble; Earth observation satellites from companies like Planet Labs, Umbra, and HawkEye 360; GPS; miniature CubeSats for education and research; and military/defense satellites.

Loading next visibility...
Identifier
2754, 1967-034A
Orbit
LEO
Country
Flag of USUS
Related business
Manufacturer
APL
Mission
Spacecraft
Bus & Motor
TRANSIT 5, Unknown motor
Mass
~50 kg wet, ~50 kg dry
Launch date (UTC)
1967-04-14 (59 years ago)
Launch vehicle
SCOUT A
Launch site
Air Force Western Test Range (AFWTR)
Object type
Payload
Rocket body
Debris
Shape & HBR
Unknown
Radar Cross Section
Large (>1 m²)

Expand to show TLE details & history
Last TLE update: 12 hours ago

TLE from 12 hours ago
0 OPS 0100 (TRANSIT 15)
1 02754U 67034A   26126.49146155  .00000127  00000-0  16515-3 0  9991
2 02754  90.2379  34.1738 0017435 269.4374 264.1441 13.57397017920456
Epoch: 2026-05-06T11:47Z
TLE epoch observation values (Epoch: 2026-05-06T11:47:42.277Z)
Latitude
6.54104°
Longitude
172.9236°
Altitude
1,048.864 km
Speed
7.327 km/s
True Right ascension
14h 16m 48s
True Declination
6° 30' 14"
Sunlit
Object was in full shadow at epoch
Visualization orbit readout
Latitude
Unknown
Longitude
Unknown
Altitude
Unknown
Speed
Unknown
Apparent Right ascension
Unknown
Apparent Declination
Unknown
Sunlit
N/A
Visualization observer readout
Local Sidereal Time
07:56:41
Azimuth
Unknown
Elevation
Unknown
Doppler factor
Unknown
Orbital elements
Apogee altitude
1,055.144 km
Perigee altitude
1,029.269 km
Semi-major axis
7,420.343 km
Eccentricity
0.00174
Inclination
90.2379°
RAAN
34.1738°
Arg. of periapsis
269.4374°
True anomaly
263.9454°
Mean anomaly
264.1441°
Eccentric anomaly
264.04474°
Mean motion
3.39553 °/min
Orbital period
106.02 mins
BSTAR
0.00016515
Loading maneuver chart data...
Computing Atmospheric mass density...
Loading historical data...
Loading historical data...
Loading historical data...
Loading historical data...
Loading historical data...
Loading historical data...
Loading historical data...

Documentation

Showing up to 5 results
|